"Period start","avg(HW err(1)/warn(2) (#))","avg(Visibility (m))","avg(Weather code (#))","avg(Precip intensity (mm/h))","min(HW err(1)/warn(2) (#))","max(HW err(1)/warn(2) (#))","std(HW err(1)/warn(2) (#))","med(HW err(1)/warn(2) (#))","min(Visibility (m))","max(Visibility (m))","std(Visibility (m))","med(Visibility (m))","min(Weather code (#))","max(Weather code (#))","std(Weather code (#))","med(Weather code (#))","min(Precip intensity (mm/h))","max(Precip intensity (mm/h))","std(Precip intensity (mm/h))","med(Precip intensity (mm/h))"
2017-03-14 00:00:00,2,45822,0,0.00,2,2,0,2,40867,50000,3588,46100,0,0,0,0,0.00,0.00,0.00,0.00
2017-03-14 00:10:00,2,47129,0,0.00,2,2,0,2,43045,50000,2920,47837,0,0,0,0,0.00,0.00,0.00,0.00
2017-03-14 00:20:00,2,43056,0,0.00,2,2,0,2,36887,50000,4554,41382,0,0,0,0,0.00,0.00,0.00,0.00
2017-03-14 00:30:00,2,28128,0,0.00,2,2,0,2,8339,50000,16394,19774,0,0,0,0,0.00,0.00,0.00,0.00
2017-03-14 00:40:00,2,8447,3,0.00,2,2,0,2,5093,11888,2441,8206,0,10,5,0,0.00,0.00,0.00,0.00
2017-03-14 00:50:00,2,20494,10,0.00,2,2,0,2,7468,34172,10241,22484,10,10,0,10,0.00,0.00,0.00,0.00
2017-03-14 01:00:00,2,32657,0,0.00,2,2,0,2,21332,41470,5291,33264,0,0,0,0,0.00,0.00,0.00,0.00
2017-03-14 01:10:00,2,40934,0,0.00,2,2,0,2,31200,49576,6032,40973,0,0,0,0,0.00,0.00,0.00,0.00
2017-03-14 01:20:00,2,43246,0,0.00,2,2,0,2,30772,50000,6469,44440,0,0,0,0,0.00,0.00,0.00,0.00
2017-03-14 01:30:00,2,44085,0,0.00,2,2,0,2,35822,50000,5768,45361,0,0,0,0,0.00,0.00,0.00,0.00
2017-03-14 01:40:00,2,47400,0,0.00,2,2,0,2,39196,50000,3306,48600,0,0,0,0,0.00,0.00,0.00,0.00
2017-03-14 01:50:00,2,49426,0,0.00,2,2,0,2,48331,50000,712,50000,0,0,0,0,0.00,0.00,0.00,0.00
2017-03-14 02:00:00,2,49875,0,0.00,2,2,0,2,48963,50000,311,50000,0,0,0,0,0.00,0.00,0.00,0.00
2017-03-14 02:10:00,2,48751,0,0.00,2,2,0,2,43527,50000,2478,50000,0,0,0,0,0.00,0.00,0.00,0.00
2017-03-14 02:20:00,2,46546,0,0.00,2,2,0,2,37547,50000,4579,48854,0,0,0,0,0.00,0.00,0.00,0.00
2017-03-14 02:30:00,2,49913,0,0.00,2,2,0,2,49129,50000,261,50000,0,0,0,0,0.00,0.00,0.00,0.00
2017-03-14 02:40:00,2,49021,0,0.00,2,2,0,2,46341,50000,1197,49550,0,0,0,0,0.00,0.00,0.00,0.00
2017-03-14 02:50:00,2,46316,0,0.00,2,2,0,2,41726,50000,3005,46136,0,0,0,0,0.00,0.00,0.00,0.00
2017-03-14 03:00:00,2,47983,0,0.00,2,2,0,2,38964,50000,3404,49738,0,0,0,0,0.00,0.00,0.00,0.00
2017-03-14 03:10:00,2,48042,0,0.00,2,2,0,2,41966,50000,3051,49848,0,0,0,0,0.00,0.00,0.00,0.00
2017-03-14 03:20:00,2,48786,0,0.00,2,2,0,2,46582,50000,1248,49198,0,0,0,0,0.00,0.00,0.00,0.00
2017-03-14 03:30:00,2,47766,0,0.00,2,2,0,2,40069,50000,3213,50000,0,0,0,0,0.00,0.00,0.00,0.00
2017-03-14 03:40:00,2,44316,0,0.00,2,2,0,2,38445,50000,4353,44253,0,0,0,0,0.00,0.00,0.00,0.00
2017-03-14 03:50:00,2,45932,0,0.00,2,2,0,2,38367,50000,3254,46182,0,0,0,0,0.00,0.00,0.00,0.00
2017-03-14 04:00:00,2,47444,0,0.00,2,2,0,2,34505,50000,4959,50000,0,0,0,0,0.00,0.00,0.00,0.00
2017-03-14 04:10:00,2,46917,0,0.00,2,2,0,2,38571,50000,3666,48004,0,0,0,0,0.00,0.00,0.00,0.00
2017-03-14 04:20:00,2,45266,0,0.00,2,2,0,2,32210,50000,6440,49604,0,0,0,0,0.00,0.00,0.00,0.00
2017-03-14 04:30:00,2,43444,0,0.00,2,2,0,2,35340,50000,6309,43428,0,0,0,0,0.00,0.00,0.00,0.00
2017-03-14 04:40:00,2,44245,0,0.00,2,2,0,2,36256,50000,5220,43830,0,0,0,0,0.00,0.00,0.00,0.00
2017-03-14 04:50:00,2,46459,0,0.00,2,2,0,2,41213,50000,3440,47160,0,0,0,0,0.00,0.00,0.00,0.00
2017-03-14 05:00:00,2,48799,0,0.00,2,2,0,2,45958,50000,1785,50000,0,0,0,0,0.00,0.00,0.00,0.00
2017-03-14 05:10:00,2,47353,0,0.00,2,2,0,2,40115,50000,3347,49190,0,0,0,0,0.00,0.00,0.00,0.00
2017-03-14 05:20:00,2,49495,0,0.00,2,2,0,2,47392,50000,1011,50000,0,0,0,0,0.00,0.00,0.00,0.00
2017-03-14 05:30:00,2,47084,0,0.00,2,2,0,2,33174,50000,5478,50000,0,0,0,0,0.00,0.00,0.00,0.00
2017-03-14 05:40:00,2,47312,0,0.00,2,2,0,2,42024,50000,3052,49176,0,0,0,0,0.00,0.00,0.00,0.00
2017-03-14 05:50:00,2,49851,0,0.00,2,2,0,2,49170,50000,300,50000,0,0,0,0,0.00,0.00,0.00,0.00
2017-03-14 06:00:00,2,47869,0,0.00,2,2,0,2,42253,50000,3036,49658,0,0,0,0,0.00,0.00,0.00,0.00
2017-03-14 06:10:00,2,49448,0,0.00,2,2,0,2,45594,50000,1310,50000,0,0,0,0,0.00,0.00,0.00,0.00
2017-03-14 06:20:00,2,49679,0,0.00,2,2,0,2,47839,50000,652,50000,0,0,0,0,0.00,0.00,0.00,0.00
2017-03-14 06:30:00,2,50000,0,0.00,2,2,0,2,50000,50000,0,50000,0,0,0,0,0.00,0.00,0.00,0.00
2017-03-14 06:40:00,2,47933,0,0.00,2,2,0,2,43157,50000,2407,49208,0,0,0,0,0.00,0.00,0.00,0.00
2017-03-14 06:50:00,2,49514,0,0.00,2,2,0,2,46282,50000,1097,50000,0,0,0,0,0.00,0.00,0.00,0.00
2017-03-14 07:00:00,2,49998,0,0.00,2,2,0,2,49983,50000,5,50000,0,0,0,0,0.00,0.00,0.00,0.00
2017-03-14 07:10:00,2,48753,0,0.00,2,2,0,2,45044,50000,1776,49734,0,0,0,0,0.00,0.00,0.00,0.00
2017-03-14 07:20:00,2,50000,0,0.00,2,2,0,2,50000,50000,0,50000,0,0,0,0,0.00,0.00,0.00,0.00
2017-03-14 07:30:00,2,49765,0,0.00,2,2,0,2,47650,50000,705,50000,0,0,0,0,0.00,0.00,0.00,0.00
2017-03-14 07:40:00,2,49665,0,0.00,2,2,0,2,47023,50000,888,50000,0,0,0,0,0.00,0.00,0.00,0.00
2017-03-14 07:50:00,2,50000,0,0.00,2,2,0,2,50000,50000,0,50000,0,0,0,0,0.00,0.00,0.00,0.00
2017-03-14 08:00:00,2,49415,0,0.00,2,2,0,2,44459,50000,1654,50000,0,0,0,0,0.00,0.00,0.00,0.00
2017-03-14 08:10:00,2,49958,0,0.00,2,2,0,2,49580,50000,126,50000,0,0,0,0,0.00,0.00,0.00,0.00
2017-03-14 08:20:00,2,49941,0,0.00,2,2,0,2,49414,50000,176,50000,0,0,0,0,0.00,0.00,0.00,0.00
2017-03-14 08:30:00,2,49964,0,0.00,2,2,0,2,49643,50000,107,50000,0,0,0,0,0.00,0.00,0.00,0.00
2017-03-14 08:40:00,2,50000,0,0.00,2,2,0,2,50000,50000,0,50000,0,0,0,0,0.00,0.00,0.00,0.00
2017-03-14 08:50:00,2,50000,0,0.00,2,2,0,2,50000,50000,0,50000,0,0,0,0,0.00,0.00,0.00,0.00
2017-03-14 09:00:00,2,50000,0,0.00,2,2,0,2,50000,50000,0,50000,0,0,0,0,0.00,0.00,0.00,0.00
2017-03-14 09:10:00,2,50000,0,0.00,2,2,0,2,50000,50000,0,50000,0,0,0,0,0.00,0.00,0.00,0.00
2017-03-14 09:20:00,2,50000,0,0.00,2,2,0,2,50000,50000,0,50000,0,0,0,0,0.00,0.00,0.00,0.00
2017-03-14 09:30:00,2,50000,0,0.00,2,2,0,2,50000,50000,0,50000,0,0,0,0,0.00,0.00,0.00,0.00
2017-03-14 09:40:00,2,50000,0,0.00,2,2,0,2,50000,50000,0,50000,0,0,0,0,0.00,0.00,0.00,0.00
2017-03-14 09:50:00,2,50000,0,0.00,2,2,0,2,50000,50000,0,50000,0,0,0,0,0.00,0.00,0.00,0.00
2017-03-14 10:00:00,2,50000,0,0.00,2,2,0,2,50000,50000,0,50000,0,0,0,0,0.00,0.00,0.00,0.00
2017-03-14 10:10:00,2,50000,0,0.00,2,2,0,2,50000,50000,0,50000,0,0,0,0,0.00,0.00,0.00,0.00
2017-03-14 10:20:00,2,50000,0,0.00,2,2,0,2,50000,50000,0,50000,0,0,0,0,0.00,0.00,0.00,0.00
2017-03-14 10:30:00,2,50000,0,0.00,2,2,0,2,50000,50000,0,50000,0,0,0,0,0.00,0.00,0.00,0.00
2017-03-14 10:40:00,2,50000,0,0.00,2,2,0,2,50000,50000,0,50000,0,0,0,0,0.00,0.00,0.00,0.00
2017-03-14 10:50:00,2,50000,0,0.00,2,2,0,2,50000,50000,0,50000,0,0,0,0,0.00,0.00,0.00,0.00
2017-03-14 11:00:00,2,50000,0,0.00,2,2,0,2,50000,50000,0,50000,0,0,0,0,0.00,0.00,0.00,0.00
2017-03-14 11:10:00,2,50000,0,0.00,2,2,0,2,50000,50000,0,50000,0,0,0,0,0.00,0.00,0.00,0.00
2017-03-14 11:20:00,2,50000,0,0.00,2,2,0,2,50000,50000,0,50000,0,0,0,0,0.00,0.00,0.00,0.00
2017-03-14 11:30:00,2,50000,0,0.00,2,2,0,2,50000,50000,0,50000,0,0,0,0,0.00,0.00,0.00,0.00
2017-03-14 11:40:00,2,50000,0,0.00,2,2,0,2,50000,50000,0,50000,0,0,0,0,0.00,0.00,0.00,0.00
2017-03-14 11:50:00,2,50000,0,0.00,2,2,0,2,50000,50000,0,50000,0,0,0,0,0.00,0.00,0.00,0.00
2017-03-14 12:00:00,2,50000,0,0.00,2,2,0,2,50000,50000,0,50000,0,0,0,0,0.00,0.00,0.00,0.00
2017-03-14 12:10:00,2,50000,0,0.00,2,2,0,2,50000,50000,0,50000,0,0,0,0,0.00,0.00,0.00,0.00
2017-03-14 12:20:00,2,50000,0,0.00,2,2,0,2,50000,50000,0,50000,0,0,0,0,0.00,0.00,0.00,0.00
2017-03-14 12:30:00,2,50000,0,0.00,2,2,0,2,50000,50000,0,50000,0,0,0,0,0.00,0.00,0.00,0.00
2017-03-14 12:40:00,2,50000,0,0.00,2,2,0,2,50000,50000,0,50000,0,0,0,0,0.00,0.00,0.00,0.00
2017-03-14 12:50:00,2,49918,0,0.00,2,2,0,2,49180,50000,246,50000,0,0,0,0,0.00,0.00,0.00,0.00
2017-03-14 13:00:00,2,50000,0,0.00,2,2,0,2,50000,50000,0,50000,0,0,0,0,0.00,0.00,0.00,0.00
2017-03-14 13:10:00,2,50000,0,0.00,2,2,0,2,50000,50000,0,50000,0,0,0,0,0.00,0.00,0.00,0.00
2017-03-14 13:20:00,2,50000,0,0.00,2,2,0,2,50000,50000,0,50000,0,0,0,0,0.00,0.00,0.00,0.00
2017-03-14 13:30:00,2,50000,0,0.00,2,2,0,2,50000,50000,0,50000,0,0,0,0,0.00,0.00,0.00,0.00
2017-03-14 13:40:00,2,50000,0,0.00,2,2,0,2,50000,50000,0,50000,0,0,0,0,0.00,0.00,0.00,0.00
2017-03-14 13:50:00,2,50000,0,0.00,2,2,0,2,50000,50000,0,50000,0,0,0,0,0.00,0.00,0.00,0.00
2017-03-14 14:00:00,2,50000,0,0.00,2,2,0,2,50000,50000,0,50000,0,0,0,0,0.00,0.00,0.00,0.00
2017-03-14 14:10:00,2,50000,0,0.00,2,2,0,2,50000,50000,0,50000,0,0,0,0,0.00,0.00,0.00,0.00
2017-03-14 14:20:00,2,50000,0,0.00,2,2,0,2,50000,50000,0,50000,0,0,0,0,0.00,0.00,0.00,0.00
2017-03-14 14:30:00,2,50000,0,0.00,2,2,0,2,50000,50000,0,50000,0,0,0,0,0.00,0.00,0.00,0.00
2017-03-14 14:40:00,2,50000,0,0.00,2,2,0,2,50000,50000,0,50000,0,0,0,0,0.00,0.00,0.00,0.00
2017-03-14 14:50:00,2,49281,0,0.00,2,2,0,2,45718,50000,1267,50000,0,0,0,0,0.00,0.00,0.00,0.00
2017-03-14 15:00:00,2,46259,0,0.00,2,2,0,2,39261,50000,3656,47105,0,0,0,0,0.00,0.00,0.00,0.00
2017-03-14 15:10:00,2,25128,22,0.00,2,2,0,2,17342,41718,7681,21976,0,78,34,0,0.00,0.00,0.00,0.00
2017-03-14 15:20:00,2,22224,78,0.00,2,2,0,2,18040,35258,4991,20822,78,78,0,78,0.00,0.00,0.00,0.00
2017-03-14 15:30:00,2,38192,78,0.00,2,2,0,2,30119,50000,7100,36636,78,78,0,78,0.00,0.00,0.00,0.00
2017-03-14 15:40:00,2,50000,16,0.00,2,2,0,2,50000,50000,0,50000,0,78,31,0,0.00,0.00,0.00,0.00
2017-03-14 15:50:00,2,50000,0,0.00,2,2,0,2,50000,50000,0,50000,0,0,0,0,0.00,0.00,0.00,0.00
2017-03-14 16:00:00,2,50000,0,0.00,2,2,0,2,50000,50000,0,50000,0,0,0,0,0.00,0.00,0.00,0.00
2017-03-14 16:10:00,2,50000,0,0.00,2,2,0,2,50000,50000,0,50000,0,0,0,0,0.00,0.00,0.00,0.00
2017-03-14 16:20:00,2,50000,0,0.00,2,2,0,2,50000,50000,0,50000,0,0,0,0,0.00,0.00,0.00,0.00
2017-03-14 16:30:00,2,49912,0,0.00,2,2,0,2,49123,50000,263,50000,0,0,0,0,0.00,0.00,0.00,0.00
2017-03-14 16:40:00,2,50000,0,0.00,2,2,0,2,50000,50000,0,50000,0,0,0,0,0.00,0.00,0.00,0.00
2017-03-14 16:50:00,2,50000,0,0.00,2,2,0,2,50000,50000,0,50000,0,0,0,0,0.00,0.00,0.00,0.00
2017-03-14 17:00:00,2,50000,0,0.00,2,2,0,2,50000,50000,0,50000,0,0,0,0,0.00,0.00,0.00,0.00
2017-03-14 17:10:00,2,50000,0,0.00,2,2,0,2,50000,50000,0,50000,0,0,0,0,0.00,0.00,0.00,0.00
2017-03-14 17:20:00,2,49900,0,0.00,2,2,0,2,48998,50000,301,50000,0,0,0,0,0.00,0.00,0.00,0.00
2017-03-14 17:30:00,2,50000,0,0.00,2,2,0,2,50000,50000,0,50000,0,0,0,0,0.00,0.00,0.00,0.00
2017-03-14 17:40:00,2,50000,0,0.00,2,2,0,2,50000,50000,0,50000,0,0,0,0,0.00,0.00,0.00,0.00
2017-03-14 17:50:00,2,50000,0,0.00,2,2,0,2,50000,50000,0,50000,0,0,0,0,0.00,0.00,0.00,0.00
2017-03-14 18:00:00,2,49854,0,0.00,2,2,0,2,48536,50000,439,50000,0,0,0,0,0.00,0.00,0.00,0.00
2017-03-14 18:10:00,2,50000,0,0.00,2,2,0,2,50000,50000,0,50000,0,0,0,0,0.00,0.00,0.00,0.00
2017-03-14 18:20:00,2,49964,0,0.00,2,2,0,2,49636,50000,109,50000,0,0,0,0,0.00,0.00,0.00,0.00
2017-03-14 18:30:00,2,50000,0,0.00,2,2,0,2,50000,50000,0,50000,0,0,0,0,0.00,0.00,0.00,0.00
2017-03-14 18:40:00,2,50000,0,0.00,2,2,0,2,50000,50000,0,50000,0,0,0,0,0.00,0.00,0.00,0.00
2017-03-14 18:50:00,2,50000,0,0.00,2,2,0,2,50000,50000,0,50000,0,0,0,0,0.00,0.00,0.00,0.00
2017-03-14 19:00:00,2,50000,0,0.00,2,2,0,2,50000,50000,0,50000,0,0,0,0,0.00,0.00,0.00,0.00
2017-03-14 19:10:00,2,49960,0,0.00,2,2,0,2,49596,50000,121,50000,0,0,0,0,0.00,0.00,0.00,0.00
2017-03-14 19:20:00,2,50000,0,0.00,2,2,0,2,50000,50000,0,50000,0,0,0,0,0.00,0.00,0.00,0.00
2017-03-14 19:30:00,2,50000,0,0.00,2,2,0,2,50000,50000,0,50000,0,0,0,0,0.00,0.00,0.00,0.00
2017-03-14 19:40:00,2,50000,0,0.00,2,2,0,2,50000,50000,0,50000,0,0,0,0,0.00,0.00,0.00,0.00
2017-03-14 19:50:00,2,50000,0,0.00,2,2,0,2,50000,50000,0,50000,0,0,0,0,0.00,0.00,0.00,0.00
2017-03-14 20:00:00,2,50000,0,0.00,2,2,0,2,50000,50000,0,50000,0,0,0,0,0.00,0.00,0.00,0.00
2017-03-14 20:10:00,2,50000,0,0.00,2,2,0,2,50000,50000,0,50000,0,0,0,0,0.00,0.00,0.00,0.00
2017-03-14 20:20:00,2,50000,0,0.00,2,2,0,2,50000,50000,0,50000,0,0,0,0,0.00,0.00,0.00,0.00
2017-03-14 20:30:00,2,49937,0,0.00,2,2,0,2,49366,50000,190,50000,0,0,0,0,0.00,0.00,0.00,0.00
2017-03-14 20:40:00,2,50000,0,0.00,2,2,0,2,50000,50000,0,50000,0,0,0,0,0.00,0.00,0.00,0.00
2017-03-14 20:50:00,2,50000,0,0.00,2,2,0,2,50000,50000,0,50000,0,0,0,0,0.00,0.00,0.00,0.00
2017-03-14 21:00:00,2,50000,0,0.00,2,2,0,2,50000,50000,0,50000,0,0,0,0,0.00,0.00,0.00,0.00
2017-03-14 21:10:00,2,50000,0,0.00,2,2,0,2,50000,50000,0,50000,0,0,0,0,0.00,0.00,0.00,0.00
2017-03-14 21:20:00,2,49829,0,0.00,2,2,0,2,48288,50000,514,50000,0,0,0,0,0.00,0.00,0.00,0.00
2017-03-14 21:30:00,2,49952,0,0.00,2,2,0,2,49517,50000,145,50000,0,0,0,0,0.00,0.00,0.00,0.00
2017-03-14 21:40:00,2,50000,0,0.00,2,2,0,2,50000,50000,0,50000,0,0,0,0,0.00,0.00,0.00,0.00
2017-03-14 21:50:00,2,50000,0,0.00,2,2,0,2,50000,50000,0,50000,0,0,0,0,0.00,0.00,0.00,0.00
2017-03-14 22:00:00,2,49999,0,0.00,2,2,0,2,49989,50000,3,50000,0,0,0,0,0.00,0.00,0.00,0.00
2017-03-14 22:10:00,2,49933,0,0.00,2,2,0,2,49331,50000,201,50000,0,0,0,0,0.00,0.00,0.00,0.00
2017-03-14 22:20:00,2,49952,0,0.00,2,2,0,2,49520,50000,144,50000,0,0,0,0,0.00,0.00,0.00,0.00
2017-03-14 22:30:00,2,50000,0,0.00,2,2,0,2,50000,50000,0,50000,0,0,0,0,0.00,0.00,0.00,0.00
2017-03-14 22:40:00,2,49849,0,0.00,2,2,0,2,48813,50000,359,50000,0,0,0,0,0.00,0.00,0.00,0.00
2017-03-14 22:50:00,2,50000,0,0.00,2,2,0,2,50000,50000,0,50000,0,0,0,0,0.00,0.00,0.00,0.00
2017-03-14 23:00:00,2,49734,0,0.00,2,2,0,2,48633,50000,517,50000,0,0,0,0,0.00,0.00,0.00,0.00
2017-03-14 23:10:00,2,49214,0,0.00,2,2,0,2,45979,50000,1282,50000,0,0,0,0,0.00,0.00,0.00,0.00
2017-03-14 23:20:00,2,50000,0,0.00,2,2,0,2,50000,50000,0,50000,0,0,0,0,0.00,0.00,0.00,0.00
2017-03-14 23:30:00,2,49231,0,0.00,2,2,0,2,43310,50000,1991,50000,0,0,0,0,0.00,0.00,0.00,0.00
2017-03-14 23:40:00,2,48862,0,0.00,2,2,0,2,41006,50000,2713,50000,0,0,0,0,0.00,0.00,0.00,0.00
2017-03-14 23:50:00,2,49872,0,0.00,2,2,0,2,49074,50000,286,50000,0,0,0,0,0.00,0.00,0.00,0.00
